| time (UTC) | temp F | wind direction | speed MPH | gust MPH | rain 1hr in | rain 24hr in | rain mn in | humidity % | barometer mb |
| 20260503021503 | 56 | 266 | 2.0 | 8.0 | 0.00 | 0.00 | 0.00 | 60 | 1013.3 |
| 20260503021003 | 56 | 271 | 2.0 | 6.0 | 0.00 | 0.00 | 0.00 | 61 | 1013.3 |
| 20260503020503 | 56 | 275 | 2.0 | 6.0 | 0.00 | 0.00 | 0.00 | 61 | 1013.5 |
| 20260503020003 | 56 | 276 | 2.0 | 6.0 | 0.00 | 0.00 | 0.00 | 61 | 1013.6 |
| 20260503015503 | 56 | 269 | 2.0 | 8.0 | 0.00 | 0.00 | 0.00 | 61 | 1013.6 |
| 20260503015003 | 56 | 289 | 1.0 | 5.0 | 0.00 | 0.00 | 0.00 | 60 | 1013.6 |
| 20260503014503 | 56 | 270 | 3.0 | 8.0 | 0.00 | 0.00 | 0.00 | 60 | 1013.7 |
| 20260503014003 | 56 | 271 | 2.0 | 6.0 | 0.00 | 0.00 | 0.00 | 60 | 1013.7 |
| 20260503013503 | 56 | 275 | 1.0 | 5.0 | 0.00 | 0.00 | 0.00 | 60 | 1013.7 |
| 20260503013003 | 56 | 283 | 1.0 | 5.0 | 0.00 | 0.00 | 0.00 | 60 | 1013.8 |
| 20260503012503 | 56 | 271 | 3.0 | 11.0 | 0.00 | 0.00 | 0.00 | 60 | 1013.8 |
| 20260503012003 | 56 | 269 | 3.0 | 10.0 | 0.00 | 0.00 | 0.00 | 60 | 1013.9 |
| 20260503011503 | 56 | 256 | 2.0 | 9.0 | 0.00 | 0.00 | 0.00 | 60 | 1013.9 |
| 20260503011003 | 56 | 274 | 3.0 | 10.0 | 0.00 | 0.00 | 0.00 | 60 | 1013.9 |
| 20260503010503 | 56 | 265 | 4.0 | 11.0 | 0.00 | 0.00 | 0.00 | 61 | 1013.8 |
| 20260503010003 | 56 | 267 | 4.0 | 13.0 | 0.00 | 0.00 | 0.00 | 61 | 1013.9 |
| 20260503005503 | 57 | 271 | 4.0 | 10.0 | 0.00 | 0.00 | 0.00 | 61 | 1013.9 |
| 20260503005003 | 57 | 275 | 5.0 | 13.0 | 0.00 | 0.00 | 0.00 | 61 | 1013.9 |
| 20260503004503 | 56 | 274 | 4.0 | 11.0 | 0.00 | 0.00 | 0.00 | 61 | 1014.1 |
| 20260503004003 | 56 | 281 | 5.0 | 11.0 | 0.00 | 0.00 | 0.00 | 62 | 1014.1 |
| 20260503003503 | 56 | 266 | 5.0 | 14.0 | 0.00 | 0.00 | 0.00 | 62 | 1014.0 |
| 20260503003003 | 57 | 275 | 4.0 | 10.0 | 0.00 | 0.00 | 0.00 | 62 | 1014.0 |
| 20260503002503 | 57 | 279 | 3.0 | 9.0 | 0.00 | 0.00 | 0.00 | 62 | 1014.0 |
| 20260503002003 | 57 | 272 | 4.0 | 9.0 | 0.00 | 0.00 | 0.00 | 62 | 1014.0 |
| 20260503001503 | 57 | 272 | 3.0 | 11.0 | 0.00 | 0.00 | 0.00 | 63 | 1013.9 |
| 20260503001003 | 57 | 273 | 3.0 | 9.0 | 0.00 | 0.00 | 0.00 | 63 | 1014.2 |
| 20260503000503 | 57 | 265 | 2.0 | 7.0 | 0.00 | 0.00 | 0.00 | 63 | 1014.1 |
| 20260503000003 | 57 | 274 | 4.0 | 9.0 | 0.00 | 0.00 | 0.00 | 63 | 1014.2 |
| 20260502235503 | 57 | 273 | 3.0 | 11.0 | 0.00 | 0.00 | 0.00 | 62 | 1014.1 |
| 20260502235003 | 57 | 264 | 3.0 | 10.0 | 0.00 | 0.00 | 0.00 | 61 | 1014.2 |
| 20260502234503 | 58 | 260 | 3.0 | 7.0 | 0.00 | 0.00 | 0.00 | 61 | 1014.3 |
| 20260502234003 | 57 | 270 | 3.0 | 11.0 | 0.00 | 0.00 | 0.00 | 61 | 1014.3 |
| 20260502233503 | 57 | 263 | 3.0 | 9.0 | 0.00 | 0.00 | 0.00 | 62 | 1014.3 |
| 20260502233003 | 57 | 259 | 3.0 | 13.0 | 0.00 | 0.00 | 0.00 | 61 | 1014.7 |
| 20260502232503 | 57 | 256 | 2.0 | 8.0 | 0.00 | 0.00 | 0.00 | 60 | 1014.7 |
| 20260502232003 | 57 | 273 | 2.0 | 10.0 | 0.00 | 0.00 | 0.00 | 60 | 1014.7 |
| 20260502231503 | 57 | 260 | 2.0 | 5.0 | 0.00 | 0.00 | 0.00 | 60 | 1015.0 |
| 20260502231003 | 57 | 268 | 1.0 | 6.0 | 0.00 | 0.00 | 0.00 | 60 | 1014.8 |
| 20260502230503 | 58 | 258 | 1.0 | 5.0 | 0.00 | 0.00 | 0.00 | 59 | 1015.1 |
| 20260502230003 | 58 | 259 | 1.0 | 4.0 | 0.00 | 0.00 | 0.00 | 59 | 1015.0 |
| 20260502225503 | 58 | 247 | 1.0 | 5.0 | 0.00 | 0.00 | 0.00 | 57 | 1015.2 |
| 20260502225003 | 58 | 245 | 1.0 | 5.0 | 0.00 | 0.00 | 0.00 | 57 | 1015.2 |
| 20260502224503 | 58 | 280 | 1.0 | 5.0 | 0.00 | 0.00 | 0.00 | 57 | 1015.1 |
| 20260502224003 | 59 | 265 | 0.0 | 3.0 | 0.00 | 0.00 | 0.00 | 57 | 1015.3 |
| 20260502223503 | 59 | 264 | 1.0 | 5.0 | 0.00 | 0.00 | 0.00 | 57 | 1015.3 |
| 20260502223003 | 59 | 269 | 1.0 | 4.0 | 0.00 | 0.00 | 0.00 | 56 | 1015.3 |
| 20260502222503 | 59 | 256 | 1.0 | 6.0 | 0.00 | 0.00 | 0.00 | 55 | 1015.4 |
| 20260502222003 | 59 | 282 | 2.0 | 6.0 | 0.00 | 0.00 | 0.00 | 55 | 1015.6 |
| 20260502221503 | 59 | 310 | 1.0 | 7.0 | 0.00 | 0.00 | 0.00 | 55 | 1015.5 |
| 20260502221003 | 59 | 324 | 3.0 | 9.0 | 0.00 | 0.02 | 0.00 | 55 | 1015.6 |
| 20260502220503 | 59 | 329 | 3.0 | 6.0 | 0.00 | 0.02 | 0.00 | 54 | 1015.6 |
| 20260502220003 | 59 | 328 | 3.0 | 10.0 | 0.00 | 0.02 | 0.00 | 54 | 1015.6 |
| 20260502215503 | 59 | 338 | 4.0 | 8.0 | 0.00 | 0.02 | 0.02 | 54 | 1015.6 |
| 20260502215003 | 58 | 334 | 3.0 | 10.0 | 0.00 | 0.02 | 0.02 | 54 | 1015.6 |
| 20260502214503 | 58 | 333 | 3.0 | 6.0 | 0.00 | 0.02 | 0.02 | 54 | 1015.6 |
| 20260502214003 | 58 | 343 | 1.0 | 5.0 | 0.00 | 0.02 | 0.02 | 53 | 1015.5 |
| 20260502213503 | 58 | 343 | 2.0 | 5.0 | 0.00 | 0.02 | 0.02 | 53 | 1015.6 |
| 20260502213003 | 58 | 339 | 2.0 | 6.0 | 0.00 | 0.02 | 0.02 | 53 | 1015.6 |
| 20260502212503 | 58 | 345 | 2.0 | 5.0 | 0.00 | 0.02 | 0.02 | 52 | 1015.5 |
| 20260502212004 | 58 | 340 | 2.0 | 6.0 | 0.00 | 0.02 | 0.02 | 52 | 1015.6 |
| 20260502211503 | 58 | 344 | 2.0 | 8.0 | 0.00 | 0.02 | 0.02 | 52 | 1015.7 |
| 20260502211003 | 58 | 339 | 3.0 | 8.0 | 0.00 | 0.02 | 0.02 | 52 | 1015.7 |
| 20260502210503 | 58 | 348 | 3.0 | 6.0 | 0.00 | 0.02 | 0.02 | 51 | 1015.9 |
| 20260502210003 | 58 | 349 | 3.0 | 9.0 | 0.00 | 0.02 | 0.02 | 50 | 1015.7 |
| 20260502205503 | 58 | 345 | 2.0 | 8.0 | 0.00 | 0.02 | 0.02 | 50 | 1015.7 |
| 20260502205003 | 58 | 341 | 1.0 | 5.0 | 0.00 | 0.02 | 0.02 | 50 | 1015.8 |
| 20260502204503 | 58 | 354 | 2.0 | 6.0 | 0.00 | 0.02 | 0.02 | 49 | 1015.8 |
| 20260502204003 | 58 | 346 | 3.0 | 6.0 | 0.00 | 0.02 | 0.02 | 49 | 1015.7 |
| 20260502203503 | 58 | 344 | 2.0 | 8.0 | 0.00 | 0.02 | 0.02 | 48 | 1015.6 |
| 20260502203003 | 58 | 353 | 1.0 | 4.0 | 0.00 | 0.02 | 0.02 | 48 | 1015.9 |
| 20260502202503 | 59 | 351 | 3.0 | 7.0 | 0.00 | 0.02 | 0.02 | 48 | 1016.0 |
| 20260502202003 | 59 | 347 | 3.0 | 6.0 | 0.00 | 0.02 | 0.02 | 47 | 1015.8 |
| 20260502201503 | 59 | 355 | 1.0 | 4.0 | 0.00 | 0.02 | 0.02 | 46 | 1016.0 |
| 20260502201003 | 59 | 343 | 3.0 | 9.0 | 0.00 | 0.02 | 0.02 | 45 | 1015.9 |
| 20260502200503 | 59 | 353 | 3.0 | 7.0 | 0.00 | 0.02 | 0.02 | 45 | 1015.9 |
| 20260502200003 | 60 | 335 | 2.0 | 5.0 | 0.00 | 0.02 | 0.02 | 44 | 1016.0 |
| 20260502195503 | 60 | 334 | 4.0 | 8.0 | 0.00 | 0.02 | 0.02 | 44 | 1016.0 |
| 20260502195003 | 60 | 338 | 3.0 | 9.0 | 0.00 | 0.02 | 0.02 | 43 | 1016.0 |
| 20260502194503 | 60 | 347 | 3.0 | 8.0 | 0.00 | 0.02 | 0.02 | 43 | 1015.9 |
| 20260502194003 | 60 | 349 | 3.0 | 8.0 | 0.00 | 0.02 | 0.02 | 43 | 1016.0 |
| 20260502193503 | 60 | 349 | 3.0 | 8.0 | 0.00 | 0.02 | 0.02 | 43 | 1015.9 |
| 20260502193003 | 60 | 352 | 3.0 | 5.0 | 0.00 | 0.02 | 0.02 | 42 | 1015.8 |
| 20260502192503 | 60 | 347 | 3.0 | 7.0 | 0.00 | 0.02 | 0.02 | 42 | 1015.9 |
| 20260502192003 | 61 | 357 | 4.0 | 8.0 | 0.00 | 0.02 | 0.02 | 41 | 1015.9 |
| 20260502191503 | 61 | 355 | 3.0 | 9.0 | 0.00 | 0.02 | 0.02 | 40 | 1015.9 |
| 20260502191003 | 61 | 356 | 4.0 | 10.0 | 0.00 | 0.02 | 0.02 | 39 | 1015.7 |
| 20260502190503 | 62 | 349 | 4.0 | 11.0 | 0.00 | 0.02 | 0.02 | 39 | 1015.7 |
| 20260502190003 | 62 | 337 | 3.0 | 11.0 | 0.00 | 0.02 | 0.02 | 39 | 1015.6 |
| 20260502185503 | 62 | 348 | 2.0 | 6.0 | 0.00 | 0.02 | 0.02 | 38 | 1015.7 |
| 20260502185003 | 62 | 350 | 3.0 | 8.0 | 0.00 | 0.02 | 0.02 | 38 | 1015.6 |
| 20260502184503 | 62 | 335 | 3.0 | 6.0 | 0.00 | 0.02 | 0.02 | 38 | 1015.5 |
| 20260502184003 | 62 | 349 | 2.0 | 6.0 | 0.00 | 0.02 | 0.02 | 38 | 1015.4 |
| 20260502183503 | 62 | 335 | 2.0 | 6.0 | 0.00 | 0.02 | 0.02 | 37 | 1015.3 |
| 20260502183003 | 63 | 329 | 3.0 | 11.0 | 0.00 | 0.02 | 0.02 | 37 | 1015.3 |
| 20260502182503 | 63 | 337 | 2.0 | 6.0 | 0.00 | 0.02 | 0.02 | 37 | 1015.4 |
| 20260502182003 | 63 | 345 | 4.0 | 10.0 | 0.00 | 0.02 | 0.02 | 36 | 1015.3 |
| 20260502181503 | 63 | 333 | 3.0 | 10.0 | 0.00 | 0.02 | 0.02 | 36 | 1015.2 |
| 20260502181003 | 63 | 344 | 3.0 | 9.0 | 0.00 | 0.02 | 0.02 | 36 | 1015.2 |
| 20260502180503 | 63 | 336 | 3.0 | 8.0 | 0.00 | 0.02 | 0.02 | 35 | 1015.3 |
| 20260502170503 | 67 | 357 | 4.0 | 10.0 | 0.00 | 0.02 | 0.02 | 31 | 1014.5 |
| 20260502164003 | 69 | 344 | 4.0 | 15.0 | 0.00 | 0.02 | 0.02 | 29 | 1014.7 |
| 20260502163503 | 68 | 1 | 3.0 | 9.0 | 0.00 | 0.02 | 0.02 | 29 | 1014.9 |
| 20260502163003 | 68 | 333 | 4.0 | 11.0 | 0.00 | 0.02 | 0.02 | 27 | 1014.6 |
| 20260502162503 | 69 | 356 | 7.0 | 11.0 | 0.00 | 0.02 | 0.02 | 27 | 1014.7 |
| 20260502162003 | 69 | 356 | 5.0 | 12.0 | 0.00 | 0.02 | 0.02 | 27 | 1014.6 |
| 20260502161503 | 69 | 1 | 6.0 | 14.0 | 0.00 | 0.02 | 0.02 | 27 | 1014.8 |
| 20260502161003 | 69 | 358 | 6.0 | 13.0 | 0.00 | 0.02 | 0.02 | 27 | 1014.7 |
| 20260502160503 | 69 | 357 | 6.0 | 16.0 | 0.00 | 0.02 | 0.02 | 27 | 1014.6 |
| 20260502152003 | 70 | 345 | 7.0 | 17.0 | 0.00 | 0.02 | 0.02 | 25 | 1014.8 |
| 20260502151503 | 70 | 356 | 7.0 | 15.0 | 0.00 | 0.02 | 0.02 | 25 | 1014.8 |
| 20260502151003 | 70 | 13 | 9.0 | 17.0 | 0.00 | 0.02 | 0.02 | 26 | 1014.9 |
| 20260502150503 | 70 | 5 | 10.0 | 18.0 | 0.00 | 0.02 | 0.02 | 26 | 1015.0 |
| 20260502130503 | 71 | 2 | 8.0 | 16.0 | 0.00 | 0.02 | 0.02 | 29 | 1015.3 |
| 20260502123503 | 71 | 9 | 10.0 | 22.0 | 0.00 | 0.02 | 0.02 | 31 | 1015.4 |
| 20260502123003 | 71 | 356 | 8.0 | 17.0 | 0.00 | 0.02 | 0.02 | 32 | 1015.4 |
| 20260502122503 | 70 | 1 | 8.0 | 14.0 | 0.00 | 0.02 | 0.02 | 32 | 1015.4 |
| 20260502122003 | 70 | 359 | 11.0 | 20.0 | 0.00 | 0.02 | 0.02 | 32 | 1015.5 |
| 20260502121503 | 70 | 9 | 8.0 | 17.0 | 0.00 | 0.02 | 0.02 | 33 | 1015.5 |
| 20260502121003 | 70 | 5 | 9.0 | 20.0 | 0.00 | 0.02 | 0.02 | 32 | 1015.6 |
| 20260502120503 | 70 | 6 | 9.0 | 17.0 | 0.00 | 0.02 | 0.02 | 34 | 1015.5 |
| 20260502115503 | 69 | 19 | 12.0 | 19.0 | 0.00 | 0.02 | 0.02 | 35 | 1015.5 |
| 20260502115003 | 69 | 10 | 10.0 | 18.0 | 0.00 | 0.02 | 0.02 | 35 | 1015.5 |
| 20260502114508 | 69 | 9 | 11.0 | 21.0 | 0.00 | 0.02 | 0.02 | 34 | 1015.8 |
| 20260502114003 | 69 | 358 | 10.0 | 20.0 | 0.00 | 0.02 | 0.02 | 35 | 1015.7 |
| 20260502113503 | 69 | 24 | 14.0 | 21.0 | 0.00 | 0.02 | 0.02 | 35 | 1015.7 |
| 20260502113003 | 69 | 6 | 10.0 | 19.0 | 0.00 | 0.02 | 0.02 | 36 | 1015.7 |
| 20260502112503 | 69 | 11 | 13.0 | 21.0 | 0.00 | 0.02 | 0.02 | 35 | 1015.6 |
| 20260502112003 | 70 | 2 | 10.0 | 20.0 | 0.00 | 0.02 | 0.02 | 35 | 1015.8 |
| 20260502111503 | 69 | 5 | 12.0 | 22.0 | 0.00 | 0.02 | 0.02 | 35 | 1015.7 |
| 20260502111003 | 69 | 16 | 14.0 | 24.0 | 0.00 | 0.02 | 0.02 | 34 | 1015.7 |
| 20260502110503 | 69 | 18 | 13.0 | 21.0 | 0.00 | 0.02 | 0.02 | 35 | 1015.7 |
| 20260502110003 | 69 | 10 | 14.0 | 23.0 | 0.00 | 0.02 | 0.02 | 35 | 1015.9 |
| 20260502105503 | 69 | 353 | 13.0 | 21.0 | 0.00 | 0.02 | 0.02 | 35 | 1015.7 |
| 20260502105003 | 69 | 358 | 12.0 | 19.0 | 0.00 | 0.02 | 0.02 | 34 | 1015.8 |
| 20260502104503 | 69 | 15 | 13.0 | 19.0 | 0.00 | 0.02 | 0.02 | 33 | 1015.8 |
| 20260502104003 | 69 | 12 | 11.0 | 19.0 | 0.00 | 0.02 | 0.02 | 32 | 1015.8 |
| 20260502103503 | 69 | 357 | 12.0 | 21.0 | 0.00 | 0.02 | 0.02 | 32 | 1015.7 |
| 20260502103003 | 69 | 14 | 14.0 | 23.0 | 0.00 | 0.02 | 0.02 | 32 | 1015.9 |
| 20260502102503 | 69 | 1 | 12.0 | 20.0 | 0.00 | 0.02 | 0.02 | 33 | 1016.0 |
| 20260502102003 | 69 | 2 | 13.0 | 20.0 | 0.00 | 0.02 | 0.02 | 34 | 1015.9 |
| 20260502101503 | 68 | 7 | 13.0 | 22.0 | 0.00 | 0.02 | 0.02 | 34 | 1016.0 |
| 20260502101003 | 68 | 359 | 12.0 | 19.0 | 0.00 | 0.02 | 0.02 | 35 | 1016.0 |
| 20260502100503 | 68 | 358 | 12.0 | 21.0 | 0.00 | 0.02 | 0.02 | 36 | 1015.8 |
| 20260502091503 | 66 | 4 | 13.0 | 25.0 | 0.00 | 0.02 | 0.02 | 36 | 1016.1 |
| 20260502091003 | 66 | 3 | 11.0 | 20.0 | 0.00 | 0.02 | 0.02 | 37 | 1016.3 |
| 20260502090503 | 66 | 10 | 14.0 | 22.0 | 0.00 | 0.02 | 0.02 | 36 | 1016.2 |
| 20260502071503 | 63 | 11 | 14.0 | 23.0 | 0.00 | 0.02 | 0.02 | 42 | 1016.1 |
| 20260502071003 | 63 | 3 | 11.0 | 18.0 | 0.00 | 0.02 | 0.02 | 46 | 1016.1 |
| 20260502070503 | 63 | 15 | 13.0 | 21.0 | 0.00 | 0.02 | 0.02 | 48 | 1016.1 |
| 20260502070003 | 62 | 14 | 10.0 | 17.0 | 0.00 | 0.02 | 0.02 | 49 | 1016.0 |
| 20260502065503 | 62 | 360 | 7.0 | 15.0 | 0.00 | 0.02 | 0.02 | 52 | 1016.1 |
| 20260502065003 | 61 | 343 | 4.0 | 10.0 | 0.00 | 0.02 | 0.02 | 52 | 1016.1 |
| 20260502064503 | 61 | 352 | 6.0 | 12.0 | 0.00 | 0.02 | 0.02 | 52 | 1016.1 |
| 20260502064003 | 61 | 331 | 3.0 | 8.0 | 0.00 | 0.02 | 0.02 | 53 | 1016.2 |
| 20260502063503 | 60 | 330 | 4.0 | 8.0 | 0.00 | 0.02 | 0.02 | 53 | 1016.2 |
| 20260502063003 | 60 | 336 | 4.0 | 9.0 | 0.00 | 0.02 | 0.02 | 53 | 1016.1 |
| 20260502062503 | 60 | 326 | 4.0 | 9.0 | 0.00 | 0.02 | 0.02 | 53 | 1016.2 |
| 20260502062003 | 60 | 336 | 3.0 | 8.0 | 0.00 | 0.02 | 0.02 | 54 | 1016.1 |
| 20260502061003 | 60 | 338 | 2.0 | 5.0 | 0.00 | 0.02 | 0.02 | 57 | 1016.0 |
| 20260502060503 | 59 | 320 | 1.0 | 6.0 | 0.00 | 0.02 | 0.02 | 58 | 1016.2 |
| 20260502060003 | 59 | 311 | 1.0 | 5.0 | 0.00 | 0.02 | 0.02 | 58 | 1016.0 |
| 20260502055503 | 59 | 339 | 1.0 | 4.0 | 0.00 | 0.02 | 0.02 | 58 | 1016.1 |
| 20260502055003 | 58 | 325 | 1.0 | 3.0 | 0.00 | 0.02 | 0.02 | 59 | 1016.2 |
| 20260502054503 | 58 | 0 | 0.0 | 0.0 | 0.00 | 0.02 | 0.02 | 60 | 1016.2 |
| 20260502054005 | 57 | 322 | 0.0 | 3.0 | 0.00 | 0.02 | 0.02 | 60 | 1016.2 |
| 20260502053503 | 57 | 329 | 2.0 | 4.0 | 0.00 | 0.02 | 0.02 | 59 | 1016.2 |
| 20260502053003 | 57 | 320 | 2.0 | 6.0 | 0.00 | 0.02 | 0.02 | 59 | 1016.1 |
| 20260502052503 | 57 | 321 | 2.0 | 9.0 | 0.00 | 0.02 | 0.02 | 58 | 1016.1 |
| 20260502052003 | 56 | 319 | 2.0 | 6.0 | 0.00 | 0.02 | 0.02 | 58 | 1016.1 |
| 20260502051503 | 56 | 327 | 1.0 | 5.0 | 0.00 | 0.02 | 0.02 | 58 | 1016.1 |
| 20260502051003 | 56 | 331 | 1.0 | 8.0 | 0.00 | 0.02 | 0.02 | 58 | 1016.2 |
| 20260502050503 | 56 | 315 | 0.0 | 2.0 | 0.00 | 0.02 | 0.02 | 58 | 1016.2 |
| 20260502050003 | 56 | 334 | 1.0 | 5.0 | 0.00 | 0.02 | 0.02 | 58 | 1016.2 |
| 20260502045503 | 55 | 330 | 1.0 | 5.0 | 0.00 | 0.02 | 0.02 | 59 | 1016.2 |
| 20260502045003 | 55 | 334 | 1.0 | 4.0 | 0.00 | 0.02 | 0.02 | 59 | 1016.1 |
| 20260502044504 | 55 | 6 | 2.0 | 8.0 | 0.00 | 0.02 | 0.02 | 60 | 1016.0 |
| 20260502044003 | 54 | 5 | 2.0 | 8.0 | 0.00 | 0.02 | 0.02 | 60 | 1016.0 |
| 20260502043503 | 54 | 4 | 1.0 | 6.0 | 0.00 | 0.02 | 0.02 | 60 | 1016.0 |
| 20260502043003 | 54 | 359 | 2.0 | 6.0 | 0.00 | 0.02 | 0.02 | 60 | 1016.0 |
| 20260502042503 | 53 | 353 | 2.0 | 6.0 | 0.00 | 0.02 | 0.02 | 61 | 1015.9 |
| 20260502042003 | 53 | 350 | 1.0 | 4.0 | 0.00 | 0.02 | 0.02 | 61 | 1015.9 |
| 20260502041503 | 53 | 344 | 1.0 | 4.0 | 0.00 | 0.02 | 0.02 | 62 | 1015.9 |
| 20260502041003 | 53 | 354 | 0.0 | 4.0 | 0.00 | 0.02 | 0.02 | 62 | 1015.9 |
| 20260502040503 | 52 | 337 | 0.0 | 1.0 | 0.00 | 0.02 | 0.02 | 62 | 1015.8 |
| 20260502040003 | 52 | 337 | 0.0 | 3.0 | 0.00 | 0.02 | 0.02 | 62 | 1015.7 |
| 20260502035503 | 52 | 338 | 1.0 | 3.0 | 0.00 | 0.02 | 0.02 | 62 | 1015.6 |
| 20260502035003 | 52 | 345 | 1.0 | 4.0 | 0.00 | 0.02 | 0.02 | 63 | 1015.7 |
| 20260502034503 | 52 | 360 | 0.0 | 2.0 | 0.00 | 0.02 | 0.02 | 63 | 1015.6 |
| 20260502034003 | 52 | 341 | 0.0 | 2.0 | 0.00 | 0.02 | 0.02 | 63 | 1015.6 |
| 20260502033503 | 51 | 347 | 1.0 | 3.0 | 0.00 | 0.02 | 0.02 | 64 | 1015.5 |
| 20260502033003 | 51 | 22 | 0.0 | 1.0 | 0.00 | 0.02 | 0.02 | 64 | 1015.4 |
| 20260502032503 | 51 | 0 | 0.0 | 0.0 | 0.00 | 0.02 | 0.02 | 64 | 1015.5 |
| 20260502032003 | 51 | 18 | 1.0 | 4.0 | 0.00 | 0.02 | 0.02 | 64 | 1015.5 |
| 20260502031503 | 51 | 10 | 2.0 | 4.0 | 0.00 | 0.02 | 0.02 | 65 | 1015.5 |
| 20260502031003 | 51 | 9 | 1.0 | 3.0 | 0.00 | 0.02 | 0.02 | 65 | 1015.5 |
| 20260502030503 | 51 | 341 | 0.0 | 3.0 | 0.00 | 0.02 | 0.02 | 64 | 1015.3 |
| 20260502030003 | 52 | 9 | 1.0 | 3.0 | 0.00 | 0.02 | 0.02 | 64 | 1015.4 |
| 20260502025503 | 52 | 359 | 2.0 | 5.0 | 0.00 | 0.02 | 0.02 | 65 | 1015.4 |
| 20260502025003 | 52 | 355 | 2.0 | 6.0 | 0.00 | 0.02 | 0.02 | 65 | 1015.3 |
| 20260502024503 | 51 | 10 | 4.0 | 10.0 | 0.00 | 0.02 | 0.02 | 66 | 1015.3 |
| 20260502024003 | 51 | 9 | 4.0 | 8.0 | 0.00 | 0.02 | 0.02 | 66 | 1015.3 |
| 20260502023503 | 51 | 9 | 5.0 | 9.0 | 0.00 | 0.02 | 0.02 | 67 | 1015.3 |
| 20260502023003 | 51 | 15 | 4.0 | 7.0 | 0.00 | 0.02 | 0.02 | 67 | 1015.3 |
| 20260502022503 | 51 | 11 | 3.0 | 6.0 | 0.00 | 0.02 | 0.02 | 68 | 1015.3 |
| 20260502022003 | 51 | 14 | 3.0 | 5.0 | 0.00 | 0.02 | 0.02 | 68 | 1015.4 |